Stations météo

Publicité
Biscarosse, France (7503): Température de l'air & dewpoint: 03.04.2020 12:00:00 - 09.04.2020 12:00:00 (CEST)Biscarosse, France (7503): Température de l'air 5cm: 03.04.2020 12:00:00 - 09.04.2020 12:00:00 (CEST)Biscarosse, France (7503): Température de l'air -20cm & Température de l'air -100cm: 03.04.2020 12:00:00 - 09.04.2020 12:00:00 (CEST)Biscarosse, France (7503): Vitesse du vent & gusts: 03.04.2020 12:00:00 - 09.04.2020 12:00:00 (CEST)Biscarosse, France (7503): Direction du vent: 03.04.2020 12:00:00 - 09.04.2020 12:00:00 (CEST)Biscarosse, France (7503): reduced air pressure: 03.04.2020 12:00:00 - 09.04.2020 12:00:00 (CEST)Biscarosse, France (7503): visibility: 03.04.2020 12:00:00 - 09.04.2020 12:00:00 (CEST)Biscarosse, France (7503): Ensoleillement: 03.04.2020 12:00:00 - 09.04.2020 12:00:00 (CEST)Biscarosse, France (7503): Quantités de précipitations: 03.04.2020 12:00:00 - 09.04.2020 12:00:00 (CEST)
Date & Time tt [°C] td [°C] tt 5cm [°C] tt -20cm [°C] tt -100cm [°C] ff [km/h] ff [knt] fx [km/h] fx [knt] dd ppp [hPa] vv [km] sd [min] rr [mm]
09.04.2020 12:00:00 21,2 11,5 24,9 17,5 15,6 15 8 29 16 E 1020,5 20 60 0,0
09.04.2020 11:00:00 18,7 12,0 21,9 17,6 15,6 13 7 26 14 E 1020,7 20 60 0,0
09.04.2020 10:00:00 16,0 11,0 16,8 17,8 15,5 14 8 25 13 E 1020,7 20 60 0,0
09.04.2020 09:00:00 12,6 9,4 10,4 18,1 15,5 11 6 23 13 E 1020,7 20 50 0,0
09.04.2020 08:00:00 10,6 9,0 10,1 18,4 15,5 7 4 23 12 ESE 1020,6 20 0 0,0
09.04.2020 07:00:00 11,2 9,5 10,4 18,7 15,4 13 7 24 13 E 1019,9 20 0 0,0
09.04.2020 06:00:00 12,3 9,7 11,1 19,0 15,4 14 7 23 12 E 1019,8 20 0 0,0
09.04.2020 05:00:00 13,5 10,1 12,2 19,3 15,4 14 8 24 13 E 1020,1 20 0 0,0
09.04.2020 04:00:00 13,7 10,1 12,3 19,7 15,4 15 8 24 13 E 1020,2 20 0 0,0
09.04.2020 03:00:00 14,6 11,0 13,0 20,0 15,3 14 8 24 13 E 1020,7 20 0 0,0
09.04.2020 02:00:00 14,7 11,5 13,3 20,3 15,3 14 8 19 11 E 1021,0 20 0 0,0
09.04.2020 01:00:00 15,0 11,9 13,8 20,6 15,2 11 6 24 13 E 1021,2 20 0 0,0
09.04.2020 00:00:00 15,7 11,9 14,7 20,9 15,2 13 7 22 12 ENE 1021,6 20 0 0,0
08.04.2020 23:00:00 16,4 11,8 15,0 21,1 15,2 10 5 17 9 ENE 1021,6 20 0 0,0
08.04.2020 22:00:00 16,1 11,5 14,1 21,3 15,2 8 4 11 6 NE 1021,5 20 0 0,0
08.04.2020 21:00:00 17,2 11,2 15,1 21,3 15,2 6 3 14 8 NNE 1021,1 20 12 0,0
08.04.2020 20:00:00 19,0 11,6 18,1 21,1 15,2 11 6 23 12 N 1021,0 16 42 0,0
08.04.2020 19:00:00 19,6 11,9 19,6 20,8 15,2 15 8 24 13 N 1021,0 18 60 0,0
08.04.2020 18:00:00 19,2 12,2 19,8 20,2 15,2 14 8 21 11 N 1021,2 20 60 0,0
08.04.2020 17:00:00 20,3 12,0 27,9 19,6 15,2 13 7 18 10 N 1021,5 20 60 0,0
08.04.2020 16:00:00 20,0 12,5 28,3 18,8 15,2 10 5 14 7 NNW 1022,1 20 60 0,0
08.04.2020 15:00:00 18,1 12,5 27,3 18,1 15,2 7 4 13 7 NNW 1022,6 19 60 0,0
08.04.2020 14:00:00 19,8 12,3 28,7 17,4 15,1 6 4 11 6 NNW 1022,9 20 60 0,0
08.04.2020 13:00:00 18,8 13,0 27,6 16,9 15,1 7 4 11 6 W 1023,3 20 60 0,0
08.04.2020 12:00:00 19,3 13,2 27,1 16,6 15,1 7 4 10 5 WSW 1023,5 18 60 0,0
08.04.2020 11:00:00 18,6 13,2 22,3 16,6 15,1 3 1 8 4 N 1023,6 20 60 0,0
08.04.2020 10:00:00 15,4 12,7 16,0 16,8 15,1 5 3 11 6 E 1023,8 20 37 0,0
08.04.2020 09:00:00 13,6 12,2 11,7 17,0 15,1 5 3 11 6 E 1023,7 19 42 0,0
08.04.2020 08:00:00 12,0 11,1 11,2 17,3 15,0 7 4 11 6 ESE 1023,3 16 0 0,0
08.04.2020 07:00:00 12,2 11,1 11,2 17,5 15,0 7 4 11 6 SE 1023,0 15 0 0,0
08.04.2020 06:00:00 13,1 11,8 11,8 17,8 15,0 8 4 10 5 E 1022,9 20 0 0,0
08.04.2020 05:00:00 14,2 11,7 12,9 18,0 15,0 6 3 14 7 ESE 1023,0 20 0 0,0
08.04.2020 04:00:00 15,3 11,9 14,0 18,2 15,0 9 5 13 7 SSE 1023,3 20 0 0,0
08.04.2020 03:00:00 15,0 12,5 14,0 18,4 15,0 8 4 11 6 ESE 1023,5 20 0 0,0
08.04.2020 02:00:00 14,9 13,3 13,6 18,7 15,0 5 3 9 5 E 1023,7 20 0 0,0
08.04.2020 01:00:00 15,0 12,9 13,7 18,9 14,9 2 1 6 4 ESE 1023,7 20 0 0,0
08.04.2020 00:00:00 15,2 13,0 14,4 19,0 14,9 6 3 11 6 ESE 1023,7 20 0 0,2
07.04.2020 23:00:00 15,3 13,8 14,6 19,1 15,0 7 4 13 7 E 1023,8 19 0 0,0
07.04.2020 22:00:00 15,9 13,6 14,8 19,1 14,9 10 5 15 8 E 1023,6 13 0 0,6
07.04.2020 21:00:00 17,3 12,2 16,1 19,0 14,9 8 4 16 8 ESE 1023,1 20 18 0,0
07.04.2020 20:00:00 19,3 11,6 19,3 18,8 15,0 7 4 12 7 SSE 1022,7 20 44 0,0
07.04.2020 19:00:00 20,2 10,6 21,8 18,4 14,9 5 3 7 4 WNW 1022,4 16 39 0,0
07.04.2020 18:00:00 20,5 10,0 20,9 17,9 14,9 5 3 10 5 N 1022,3 20 27 0,0
07.04.2020 17:00:00 19,3 11,6 23,4 17,3 15,0 4 2 12 6 NNW 1022,5 13 25 0,0
07.04.2020 16:00:00 21,7 12,3 27,1 16,6 15,0 11 6 18 10 WSW 1022,6 16 60 0,0
07.04.2020 15:00:00 20,0 11,5 23,8 16,0 14,9 8 4 20 11 SE 1022,8 20 40 0,0
07.04.2020 14:00:00 18,2 11,3 23,0 15,6 15,0 12 7 24 13 SE 1023,2 20 53 0,0
07.04.2020 13:00:00 17,9 10,5 21,4 15,3 15,0 11 6 26 14 SE 1023,3 20 58 0,0
07.04.2020 12:00:00 16,1 10,2 14,5 15,3 15,0 11 6 23 13 ESE 1023,6 20 24 0,0
07.04.2020 11:00:00 12,8 8,5 12,0 15,4 15,0 12 7 25 13 ESE 1023,7 20 0 0,0
07.04.2020 10:00:00 11,7 8,0 10,8 15,5 15,0 13 7 29 16 E 1023,5 20 0 0,0
07.04.2020 09:00:00 11,1 8,5 10,6 15,7 15,0 11 6 26 14 E 1023,5 20 0 0,0
07.04.2020 08:00:00 11,1 9,0 10,7 15,8 15,0 13 7 23 12 E 1023,3 20 0 0,0
07.04.2020 07:00:00 11,5 10,4 11,2 15,9 14,9 7 4 14 8 E 1023,2 20 0 0,0
07.04.2020 06:00:00 12,0 11,1 11,7 16,1 14,9 9 5 22 12 E 1023,2 18 0 0,0
07.04.2020 05:00:00 12,2 11,6 11,9 16,2 14,9 6 4 20 11 ENE 1023,3 16 0 0,0
07.04.2020 04:00:00 12,5 11,9 12,2 16,4 14,9 10 6 18 10 E 1023,7 18 0 0,2
07.04.2020 03:00:00 12,9 12,3 12,4 16,5 14,9 2 1 5 3 NNW 1024,3 3,0 0 0,4
07.04.2020 02:00:00 12,9 12,3 12,5 16,7 14,9 4 2 6 3 NE 1024,6 8 0 0,8
07.04.2020 01:00:00 12,9 12,3 12,6 16,9 14,9 0 0 6 4 N 1024,6 1,4 0 1,8
07.04.2020 00:00:00 13,1 12,3 12,8 17,0 14,9 5 3 9 5 S 1024,7 8 0 1,2
06.04.2020 23:00:00 13,5 12,9 13,2 17,1 14,9 3 2 5 3 SE 1024,3 4,0 0 0,2
06.04.2020 22:00:00 13,6 12,8 13,2 17,1 14,9 0 0 4 2 N 1024,2 9 0 0,0
06.04.2020 21:00:00 13,7 12,9 13,5 17,2 14,9 0 0 4 2 N 1023,5 19 0 0,0
06.04.2020 20:00:00 13,9 13,1 14,1 17,2 14,8 2 1 8 4 SSE 1023,0 20 0 0,0
06.04.2020 19:00:00 13,8 12,9 14,2 17,2 14,8 2 1 6 3 SSE 1022,8 20 0 0,4
06.04.2020 18:00:00 13,5 12,7 13,7 17,1 14,8 3 2 12 7 S 1022,4 18 0 0,4
06.04.2020 17:00:00 13,3 12,5 13,8 17,1 14,8 11 6 16 9 SSW 1022,6 8 0 1,2
06.04.2020 16:00:00 13,7 12,8 13,8 17,0 14,8 11 6 17 9 SSW 1022,6 6 0 1,8
06.04.2020 15:00:00 14,3 13,0 14,1 16,8 14,8 12 7 27 14 S 1022,2 14 0 0,8
06.04.2020 14:00:00 16,1 11,3 18,0 16,7 14,8 18 10 26 14 SSW 1021,4 20 0 0,0
06.04.2020 13:00:00 17,4 10,7 19,3 16,7 14,7 19 10 26 14 SSW 1020,8 20 11 0,0
06.04.2020 12:00:00 15,6 10,1 17,3 16,8 14,7 11 6 25 14 SE 1020,4 20 8 0,0
06.04.2020 11:00:00 14,6 10,4 12,7 17,0 14,7 14 7 26 14 SE 1019,7 20 0 0,0
06.04.2020 10:00:00 12,4 8,9 11,9 17,2 14,7 11 6 30 16 ESE 1019,2 20 0 0,0
06.04.2020 09:00:00 11,8 8,5 10,7 17,4 14,7 14 8 27 15 ESE 1018,5 20 0 0,0
06.04.2020 08:00:00 11,2 8,9 10,3 17,6 14,6 16 9 30 16 ESE 1017,6 18 0 0,0
06.04.2020 07:00:00 11,2 8,8 10,4 17,8 14,6 11 6 21 11 E 1017,0 20 0 0,2
06.04.2020 06:00:00 12,6 8,1 12,1 18,0 14,6 11 6 18 10 E 1016,6 20 0 0,0
06.04.2020 05:00:00 13,0 7,7 11,3 18,2 14,6 9 5 20 11 E 1016,1 20 0 0,0
06.04.2020 04:00:00 13,4 10,6 12,1 18,3 14,5 8 5 16 8 ESE 1016,1 20 0 0,0
06.04.2020 03:00:00 15,0 10,2 12,5 18,5 14,5 8 4 31 17 S 1016,3 19 0 0,2
06.04.2020 02:00:00 16,6 5,5 15,9 18,6 14,5 8 4 22 12 SE 1015,8 20 0 0,0
06.04.2020 01:00:00 17,1 6,0 16,5 18,8 14,5 12 7 29 16 SE 1015,2 20 0 0,0
06.04.2020 00:00:00 18,1 5,6 17,6 18,9 14,4 16 9 33 18 SE 1014,3 20 0 0,0
05.04.2020 23:00:00 18,7 6,2 17,4 18,9 14,5 12 7 19 11 SE 1013,8 20 0 0,0
05.04.2020 22:00:00 19,0 6,1 16,7 18,9 14,4 11 6 18 10 SE 1013,4 20 0 0,0
05.04.2020 21:00:00 19,0 7,1 16,8 18,8 14,5 8 4 23 13 ESE 1012,9 20 1 0,0
05.04.2020 20:00:00 20,9 7,5 19,2 18,6 14,4 10 6 22 12 S 1012,5 20 20 0,0
05.04.2020 19:00:00 22,4 7,0 21,4 18,2 14,4 13 7 28 15 S 1012,2 20 25 0,0
05.04.2020 18:00:00 20,5 7,1 20,8 17,8 14,4 15 8 29 16 S 1012,5 20 5 0,0
05.04.2020 17:00:00 19,4 8,4 22,5 17,2 14,4 19 10 31 17 SSW 1012,7 20 29 0,0
05.04.2020 16:00:00 19,4 7,8 23,5 16,6 14,4 16 9 28 15 S 1013,0 20 20 0,0
05.04.2020 15:00:00 20,7 8,0 25,4 16,0 14,4 15 8 28 15 SSW 1013,5 20 55 0,0
05.04.2020 14:00:00 24,1 6,4 28,0 15,7 14,4 18 10 39 21 SSW 1013,4 20 60 0,0
05.04.2020 13:00:00 22,2 5,2 24,0 15,5 14,3 22 12 38 20 S 1013,9 20 60 0,0
05.04.2020 12:00:00 19,0 5,1 22,0 15,5 14,3 15 8 31 17 SSE 1014,6 20 60 0,0
05.04.2020 11:00:00 16,7 6,8 19,1 15,6 14,3 16 9 32 18 SE 1014,8 20 60 0,0
05.04.2020 10:00:00 13,9 7,2 14,8 15,8 14,3 16 9 32 17 ESE 1015,0 20 60 0,0
05.04.2020 09:00:00 10,7 7,0 8,2 16,1 14,3 17 9 32 17 E 1015,1 20 48 0,0
05.04.2020 08:00:00 8,5 6,1 7,8 16,4 14,2 18 10 35 19 ESE 1014,8 20 0 0,0
05.04.2020 07:00:00 8,9 6,0 8,2 16,7 14,2 19 11 35 19 ESE 1014,1 20 0 0,0
05.04.2020 06:00:00 9,6 5,9 9,0 17,0 14,2 20 11 36 19 ESE 1013,9 20 0 0,0
05.04.2020 05:00:00 10,2 5,8 9,5 17,2 14,2 19 11 34 19 ESE 1014,2 20 0 0,0
05.04.2020 04:00:00 11,0 5,7 10,2 17,5 14,1 18 10 36 19 ESE 1014,7 20 0 0,0
05.04.2020 03:00:00 12,2 5,1 11,4 17,7 14,1 18 10 37 20 ESE 1014,7 20 0 0,0
05.04.2020 02:00:00 13,5 4,1 12,5 18,0 14,1 19 11 36 19 ESE 1014,9 20 0 0,0
05.04.2020 01:00:00 14,8 2,7 13,7 18,2 14,1 15 8 33 18 ESE 1014,8 20 0 0,0
05.04.2020 00:00:00 15,2 2,0 14,0 18,3 14,1 15 8 29 15 ESE 1014,6 20 0 0,0
04.04.2020 23:00:00 16,1 2,1 14,7 18,4 14,1 16 9 28 15 ESE 1014,5 20 0 0,0
04.04.2020 22:00:00 17,3 0,4 15,1 18,3 14,1 13 7 24 13 ESE 1014,5 20 0 0,0
04.04.2020 21:00:00 18,4 -1,0 15,7 18,1 14,1 8 5 14 8 ESE 1014,1 20 0 0,0
04.04.2020 20:00:00 21,4 -1,2 20,0 17,7 14,1 6 3 19 10 ESE 1013,6 20 40 0,0
04.04.2020 19:00:00 21,8 1,4 21,4 17,2 14,1 13 7 22 12 N 1013,4 20 60 0,0
04.04.2020 18:00:00 22,1 2,7 22,1 16,4 14,1 11 6 24 13 NNW 1013,3 20 60 0,0
04.04.2020 17:00:00 22,4 4,0 30,8 15,7 14,1 13 7 19 11 NNW 1014,0 20 60 0,0
04.04.2020 16:00:00 23,0 1,3 30,3 15,0 14,1 11 6 21 11 S 1014,4 20 60 0,0
04.04.2020 15:00:00 22,1 1,7 28,2 14,3 14,1 9 5 24 13 W 1015,4 20 60 0,0
04.04.2020 14:00:00 21,2 2,4 26,1 13,8 14,1 10 5 29 15 SE 1015,9 20 60 0,0
04.04.2020 13:00:00 19,4 3,1 23,9 13,6 14,1 15 8 35 19 SE 1016,5 20 60 0,0
04.04.2020 12:00:00 17,3 3,2 19,8 13,6 14,1 20 11 36 19 SE 1016,9 20 60 0,0
04.04.2020 11:00:00 14,5 4,5 15,9 13,7 14,1 18 10 35 19 ESE 1017,1 20 60 0,0
04.04.2020 10:00:00 11,2 3,7 10,3 13,9 14,0 16 9 35 19 E 1017,1 20 60 0,0
04.04.2020 09:00:00 7,0 3,1 4,6 14,2 14,0 15 8 26 14 ESE 1017,2 20 36 0,0
04.04.2020 08:00:00 5,1 2,6 4,3 14,5 14,0 16 9 26 14 E 1017,1 20 0 0,0
04.04.2020 07:00:00 5,9 2,9 4,7 14,8 14,0 12 6 24 13 E 1017,1 20 0 0,0
04.04.2020 06:00:00 7,0 3,4 5,5 15,1 14,0 14 8 24 13 E 1017,2 20 0 0,0
04.04.2020 05:00:00 7,5 3,9 5,9 15,4 13,9 14 7 22 12 E 1017,5 20 0 0,0
04.04.2020 04:00:00 8,0 4,6 6,9 15,7 13,9 12 6 19 11 E 1017,8 20 0 0,0
04.04.2020 03:00:00 8,1 5,2 6,9 16,0 13,9 11 6 19 10 E 1018,1 20 0 0,0
04.04.2020 02:00:00 8,6 6,2 7,7 16,2 13,9 12 6 19 11 ENE 1018,5 20 0 0,0
04.04.2020 01:00:00 8,7 6,1 7,7 16,5 13,9 10 5 16 9 ENE 1018,8 20 0 0,0
04.04.2020 00:00:00 9,6 6,3 8,6 16,8 13,9 10 6 16 9 ENE 1018,9 20 0 0,0
03.04.2020 23:00:00 10,0 6,3 8,2 16,9 13,9 10 5 16 9 ENE 1018,9 20 0 0,0
03.04.2020 22:00:00 9,5 6,4 8,2 17,0 13,9 7 4 21 11 ENE 1018,9 20 0 0,0
03.04.2020 21:00:00 10,6 7,3 9,5 16,9 13,9 14 7 32 17 NNE 1018,6 20 0 0,0
03.04.2020 20:00:00 12,0 6,9 11,3 16,6 13,9 25 14 34 18 N 1018,7 20 39 0,0
03.04.2020 19:00:00 12,6 6,0 13,7 16,3 13,9 25 14 30 16 NNW 1018,9 20 60 0,0
03.04.2020 18:00:00 13,1 5,0 14,1 15,8 13,9 24 13 30 16 NNW 1018,9 20 60 0,0
03.04.2020 17:00:00 13,7 4,8 19,1 15,2 13,9 26 14 33 18 NNW 1019,1 20 60 0,0
03.04.2020 16:00:00 13,3 4,4 20,8 14,6 13,9 26 14 30 16 NNW 1019,4 20 60 0,0
03.04.2020 15:00:00 13,4 4,5 20,5 14,0 13,8 24 13 29 15 NW 1019,9 20 60 0,0
03.04.2020 14:00:00 12,9 3,8 20,5 13,5 13,8 19 10 24 13 WNW 1020,4 20 60 0,0
03.04.2020 13:00:00 12,2 3,2 19,9 13,2 13,8 16 9 20 11 NW 1020,8 20 60 0,0
03.04.2020 12:00:00 12,9 1,5 17,7 13,2 13,8 10 5 14 7 NW 1021,1 20 60 0,0

tt = Température de l'air
td = dewpoint
tt 5cm = Température de l'air 5cm
tt -20cm = Température de l'air -20cm
tt -100cm = Température de l'air -100cm
ff = Vitesse du vent
fx = gusts
dd = Direction du vent
ppp = reduced air pressure
vv = visibility
sd = Ensoleillement
rr = Quantités de précipitations

stations d'obs. à proximité